Location: Barcelona
(41.3830°N, 2.1830°E)
Time: 00:31:59
(UTC+02:00)

ISS - Pass Details

Date: 13 July 2019
Orbit: 409 x 418 km, 51.6° (Epoch: 22 July)

Event Time Altitude Azimuth Distance (km) Brightness Sun altitude
Exits shadow 03:56:39 - 299° (WNW) 2,354 0.1 -20.9°
Rises 03:56:41 0° 299° (WNW) 2,346 0.0 -20.9°
Reaches altitude 10° 03:59:33 10° 327° (NNW) 1,482 -0.7 -20.6°
Maximum altitude 04:01:24 14° 0° (N) 1,264 -0.6 -20.5°
Drops below altitude 10° 04:03:14 10° 34° (NE) 1,480 0.2 -20.3°
Sets 04:06:06 0° 61° (ENE) 2,340 1.1 -20.0°
